Lincoln, NE

9:16 PM CST on November 16, 2019 (GMT -0600)
Lincoln Municipal

Weather History for KLNK - August, 2019

Change the Weather History Date:

Thursday, August 15, 2019

  Actual Average Record
Temperature  
Mean Temperature 67 °F 76 °F  
Max Temperature 76 °F 87 °F 106 °F (1937)
Min Temperature 58 °F 64 °F 48 °F (1929)
Degree Days  
Heating Degree Days 0 0  
Month to date heating degree days 0 0  
Since 1 June heating degree days 6 17  
Since 1 July heating degree days 0 1  
Cooling Degree Days 2 11  
Month to date cooling degree days 176 174  
Year to date cooling degree days 922 885  
Since 1 June cooling degree days 850 806  
Growing Degree Days 16 (Base 50)    
Moisture  
Dew Point 62 °F    
Average Humidity 85    
Maximum Humidity 97    
Minimum Humidity 73    
Precipitation  
Precipitation 0.56 in 0.12 in 1.72 in (1977)
Month to date precipitation 1.90 1.63  
Year to date precipitation 23.77 19.72  
Snow  
Snow 0.00 in 0.00 in 0.00 in (2006)
Month to date snowfall 0.0 0.0  
Since 1 June snowfall 0.0 0.0  
Since 1 July snowfall 0.0 0.0  
Snow Depth 0.00 in    
Sea Level Pressure  
Sea Level Pressure 30.02 in    
Wind  
Wind Speed 5 mph (NE)    
Max Wind Speed 21 mph    
Max Gust Speed 26 mph    
Visibility 8 miles    
Events Rain , Thunderstorm    
T = Trace of Precipitation, MM = Missing Value Source: NWS Daily Summary

Daily Weather History Graph

Daily Weather History Graph

Search for Another Location

Airport or City:

Astronomy

Aug. 15, 2019 Rise Set
Actual Time 6:36 AM CDT 8:25 PM CDT
Civil Twilight 6:07 AM CDT 8:54 PM CDT
Nautical Twilight 5:31 AM CDT 9:30 PM CDT
Astronomical Twilight 4:53 AM CDT 10:08 PM CDT
Moon 8:54 PM CDT (8/15) 6:32 AM CDT (8/15)
Length of Visible Light 14h 47m
Length of Day
13h 48m
Full, 100% of the Moon is Illuminated
Aug 15
Full
Aug 23
Last Quarter
Aug 30
New
Sep 5
First Quarter
Sep 13
Full

Hourly Weather History & Observations

Time (CDT) Temp. Dew Point Humidity Pressure Visibility Wind Dir Wind Speed Gust Speed Precip Events Conditions
12:54 AM 63.0 °F 60.1 °F 90% 30.11 in 10.0 mi North 5.8 mph - N/A   Clear
1:54 AM 61.0 °F 57.9 °F 90% 30.10 in 10.0 mi Calm Calm - N/A   Clear
2:54 AM 60.1 °F 57.9 °F 93% 30.08 in 10.0 mi North 3.5 mph - N/A   Clear
3:54 AM 61.0 °F 59.0 °F 93% 30.07 in 10.0 mi Calm Calm - N/A   Clear
4:54 AM 60.1 °F 57.9 °F 93% 30.07 in 10.0 mi NNW 4.6 mph - N/A   Scattered Clouds
5:54 AM 59.0 °F 57.0 °F 93% 30.07 in 10.0 mi North 3.5 mph - N/A   Clear
6:54 AM 59.0 °F 57.0 °F 93% 30.08 in 10.0 mi North 5.8 mph - N/A   Clear
7:54 AM 64.0 °F 60.1 °F 87% 30.07 in 10.0 mi Calm Calm - N/A   Clear
8:54 AM 66.0 °F 62.1 °F 87% 30.05 in 10.0 mi SSE 3.5 mph - N/A   Scattered Clouds
9:54 AM 66.9 °F 62.1 °F 84% 30.04 in 10.0 mi SSE 5.8 mph - N/A   Overcast
10:54 AM 66.0 °F 63.0 °F 90% 30.08 in 4.0 mi North 13.8 mph - 0.02 in Rain , Thunderstorm Rain
11:05 AM 66.0 °F 63.0 °F 90% 30.12 in 4.0 mi NNW 17.3 mph - 0.05 in Rain , Thunderstorm Thunderstorms and Rain
11:17 AM 64.9 °F 63.0 °F 93% 30.12 in 1.5 mi North 6.9 mph 25.3 mph 0.10 in Rain , Thunderstorm Heavy Thunderstorms and Rain
11:29 AM 64.9 °F 63.0 °F 93% 30.13 in 3.0 mi NNW 13.8 mph - 0.31 in Rain , Thunderstorm Thunderstorms and Rain
11:48 AM 64.4 °F 62.6 °F 94% 30.13 in 1.8 mi NW 10.4 mph - 0.42 in Rain , Thunderstorm Heavy Thunderstorms and Rain
11:49 AM 64.9 °F 62.1 °F 90% 30.12 in 1.8 mi NW 9.2 mph - 0.44 in Rain , Thunderstorm Heavy Thunderstorms and Rain
11:55 AM 64.0 °F 62.1 °F 93% 30.12 in 3.0 mi WNW 3.5 mph - 0.04 in Rain , Thunderstorm Thunderstorms and Rain
12:07 PM 64.0 °F 62.1 °F 93% 30.03 in 4.0 mi SE 17.3 mph - 0.07 in Rain , Thunderstorm Rain
12:18 PM 64.0 °F 62.1 °F 93% 29.99 in 5.0 mi SE 18.4 mph - 0.09 in Rain , Thunderstorm Light Rain
12:54 PM 66.0 °F 62.1 °F 87% 29.97 in 10.0 mi South 10.4 mph - 0.10 in   Partly Cloudy
1:54 PM 69.1 °F 64.0 °F 84% 29.95 in 10.0 mi ENE 9.2 mph - N/A   Clear
2:54 PM 72.0 °F 64.0 °F 76% 29.95 in 10.0 mi ESE 8.1 mph - N/A   Mostly Cloudy
3:02 PM 72.0 °F 64.0 °F 76% 29.98 in 10.0 mi SE 8.1 mph - N/A   Mostly Cloudy
3:54 PM 71.1 °F 64.0 °F 78% 29.96 in 10.0 mi SSE 8.1 mph - N/A   Overcast
4:54 PM 71.1 °F 63.0 °F 75% 29.94 in 10.0 mi SSE 5.8 mph - N/A   Overcast
5:54 PM 72.0 °F 63.0 °F 73% 29.93 in 10.0 mi Calm Calm - N/A   Overcast
6:54 PM 73.0 °F 64.0 °F 73% 29.93 in 10.0 mi North 9.2 mph - N/A   Mostly Cloudy
7:54 PM 71.1 °F 64.0 °F 78% 29.91 in 10.0 mi NNE 3.5 mph - N/A   Overcast
8:54 PM 70.0 °F 63.0 °F 78% 29.91 in 10.0 mi East 5.8 mph - N/A   Clear
9:54 PM 69.1 °F 64.0 °F 84% 29.92 in 10.0 mi ESE 5.8 mph - N/A   Mostly Cloudy
10:54 PM 68.0 °F 63.0 °F 84% 29.93 in 10.0 mi ESE 4.6 mph - N/A   Clear
11:54 PM 66.9 °F 64.0 °F 90% 29.93 in 10.0 mi Calm Calm - N/A   Clear